K42C Weather Reports


Display with metric or nautical units.
time (UTC)temp
F
wind
direction
speed
MPH
gust
MPH
rain 1hr
in
rain 24hr
in
rain mn
in
humidity
%
barometer
mb
20260905193712 77 8 8.0 8.0 0.00 0.44 0.01 74 977.5
20260905192355 77 48 5.0 6.0 0.00 0.44 0.01 76 977.5
20260905191714 76 62 7.0 6.0 0.00 0.44 0.01 75 977.5
20260905191037 77 55 9.0 6.0 0.00 0.44 0.01 75 977.6
20260905190356 77 42 6.0 6.0 0.00 0.44 0.01 75 977.7
20260905185719 77 65 6.0 5.0 0.00 0.44 0.01 76 977.9
20260905185039 76 125 4.0 2.0 0.00 0.44 0.01 78 978.1
20260905184402 76 87 2.0 3.0 0.00 0.44 0.01 81 978.1
20260905183721 76 49 5.0 6.0 0.00 0.44 0.01 80 978.2
20260905183044 75 108 1.0 5.0 0.00 0.44 0.01 82 978.4
20260905182404 75 35 7.0 3.0 0.00 0.44 0.01 81 978.3
20260905181727 75 107 6.0 0.0 0.00 0.44 0.01 81 978.3
20260905181046 75 31 7.0 6.0 0.00 0.44 0.01 82 978.4
20260905180409 74 41 7.0 5.0 0.00 0.44 0.01 86 978.3
20260905175729 74 60 5.0 6.0 0.00 0.44 0.01 86 978.4
20260905175052 75 44 4.0 6.0 0.00 0.44 0.01 87 978.3
20260905174411 75 84 5.0 3.0 0.00 0.44 0.01 85 978.4
20260905173734 74 84 6.0 4.0 0.00 0.44 0.01 87 978.3
20260905173054 73 143 7.0 6.0 0.00 0.44 0.01 90 978.5
20260905172417 73 30 6.0 0.0 0.00 0.44 0.01 90 978.6
20260905171736 72 138 6.0 6.0 0.00 0.44 0.01 91 978.8
20260905171059 72 55 7.0 7.0 0.00 0.44 0.01 92 978.8
20260905170419 71 23 6.0 6.0 0.00 0.44 0.01 92 978.7
20260905165742 72 66 7.0 6.0 0.00 0.44 0.01 92 978.9
20260905165101 71 58 7.0 7.0 0.00 0.44 0.01 93 979.0
20260905164424 71 115 5.0 8.0 0.00 0.44 0.01 93 978.9
20260905163744 71 24 2.0 8.0 0.00 0.44 0.01 94 979.0
20260905163107 70 11 8.0 7.0 0.00 0.44 0.01 94 978.9
20260905162427 70 63 5.0 6.0 0.00 0.44 0.01 95 978.9
20260905161750 70 101 4.0 5.0 0.00 0.44 0.01 95 978.9
20260905161109 70 25 5.0 6.0 0.00 0.44 0.01 96 978.9
20260905160432 70 53 8.0 7.0 0.00 0.44 0.01 96 978.9
20260905155752 70 48 8.0 6.0 0.00 0.44 0.01 96 978.9
20260905155115 69 145 5.0 5.0 0.00 0.44 0.01 97 978.8
20260905154434 69 56 7.0 7.0 0.00 0.44 0.01 98 978.9
20260905153757 69 84 7.0 8.0 0.00 0.44 0.01 99 978.9
20260905153117 69 86 6.0 8.0 0.00 0.44 0.01 100 979.0
20260905152440 68 79 7.0 8.0 0.00 0.44 0.01 100 979.0
20260905151800 68 83 7.0 5.0 0.00 0.44 0.01 100 979.0
20260905151123 68 53 5.0 3.0 0.00 0.44 0.01 100 978.9
20260905150442 68 108 7.0 5.0 0.00 0.44 0.01 100 978.9
20260905145805 68 38 7.0 7.0 0.01 0.44 0.01 100 979.0
20260905145125 68 59 8.0 5.0 0.01 0.44 0.01 100 979.0
20260905144448 68 105 6.0 9.0 0.01 0.44 0.01 100 978.7
20260905143807 68 114 6.0 8.0 0.01 0.44 0.01 100 978.7
20260905143130 68 83 8.0 8.0 0.01 0.44 0.01 100 978.7
20260905142450 68 49 6.0 7.0 0.01 0.44 0.01 100 978.6
20260905141813 68 86 5.0 8.0 0.01 0.44 0.01 100 978.5
20260905141133 67 51 5.0 5.0 0.01 0.44 0.01 100 978.5
20260905140456 67 34 4.0 5.0 0.01 0.44 0.01 100 978.5
20260905135815 67 91 5.0 8.0 0.00 0.44 0.01 100 978.5
20260905135138 67 90 6.0 5.0 0.00 0.44 0.01 100 978.6
20260905133225 67 117 7.0 9.0 0.00 0.44 0.01 100 978.5
20260905133140 67 117 7.0 9.0 0.00 0.44 0.01 100 978.5
20260905132503 67 63 6.0 8.0 0.00 0.44 0.01 100 978.5
20260905131823 67 63 7.0 7.0 0.00 0.44 0.01 100 978.5
20260905130506 67 84 8.0 6.0 0.00 0.44 0.00 100 978.3
20260905125829 67 59 7.0 4.0 0.00 0.44 0.00 100 978.3
20260905124511 67 69 6.0 7.0 0.00 0.44 0.00 100 978.3
20260905124113 67 100 7.0 7.0 0.00 0.44 0.00 100 978.2
20260905123831 67 100 7.0 7.0 0.00 0.44 0.00 100 978.2
20260905123154 67 87 5.0 6.0 0.00 0.44 0.00 100 978.1
20260905122513 67 113 7.0 4.0 0.00 0.44 0.00 100 978.0
20260905121836 67 77 6.0 7.0 0.00 0.44 0.00 100 977.9
20260905121156 67 70 6.0 4.0 0.00 0.44 0.00 100 977.9
20260905120519 67 113 7.0 5.0 0.00 0.44 0.00 100 977.8
20260905115838 67 89 7.0 5.0 0.00 0.44 0.00 100 977.7
20260905115244 67 69 5.0 6.0 0.00 0.44 0.00 100 977.7
20260905115201 67 69 5.0 6.0 0.00 0.44 0.00 100 977.7
20260905113844 67 55 7.0 6.0 0.00 0.44 0.00 100 977.7
20260905112731 67 66 4.0 7.0 0.00 0.44 0.00 100 977.5
20260905112527 67 66 4.0 7.0 0.00 0.44 0.00 100 977.5
20260905111846 67 66 7.0 6.0 0.00 0.44 0.00 99 977.4
20260905110529 67 72 6.0 5.0 0.00 0.44 0.00 100 977.4
20260905105852 67 83 5.0 7.0 0.00 0.44 0.00 100 977.4
20260905105211 67 89 7.0 5.0 0.00 0.44 0.00 100 977.4
20260905104534 67 359 5.0 9.0 0.00 0.44 0.00 100 977.5
20260905103854 67 59 6.0 6.0 0.00 0.44 0.00 100 977.5
20260905102637 67 28 7.0 6.0 0.00 0.44 0.00 100 977.4
20260905102536 67 28 7.0 6.0 0.00 0.44 0.00 100 977.4
20260905101859 67 101 2.0 5.0 0.00 0.44 0.00 100 977.0
20260905101219 67 121 4.0 5.0 0.00 0.44 0.00 100 977.2
20260905100542 67 94 7.0 6.0 0.00 0.44 0.00 100 977.3
20260905094544 68 89 6.0 9.0 0.00 0.44 0.00 100 977.2
20260905094129 68 86 9.0 8.0 0.00 0.44 0.00 100 977.2
20260905093907 68 86 9.0 8.0 0.00 0.44 0.00 100 977.2
20260905093227 68 62 7.0 7.0 0.00 0.44 0.00 100 977.1
20260905092550 68 34 7.0 7.0 0.00 0.44 0.00 100 977.1
20260905091909 68 101 0.0 9.0 0.00 0.44 0.00 100 977.1
20260905091232 68 46 7.0 4.0 0.00 0.44 0.00 100 976.8
20260905090640 68 52 5.0 6.0 0.00 0.44 0.00 100 976.8
20260905090552 68 52 5.0 6.0 0.00 0.44 0.00 100 976.8
20260905085915 68 104 0.0 4.0 0.00 0.44 0.00 100 977.0
20260905085234 68 68 5.0 6.0 0.00 0.44 0.00 100 976.8
20260905084557 68 21 0.0 0.0 0.00 0.44 0.00 100 976.8
20260905083240 69 62 3.0 3.0 0.00 0.44 0.00 100 976.9
20260905082640 69 58 5.0 3.0 0.00 0.44 0.00 100 976.8
20260905082559 69 58 5.0 3.0 0.00 0.44 0.00 100 976.8
20260905081922 69 66 5.0 3.0 0.00 0.44 0.00 100 976.8
20260905081242 69 72 3.0 5.0 0.00 0.44 0.00 100 976.6
20260905080605 69 100 0.0 0.0 0.00 0.44 0.00 100 976.8
20260905075924 69 55 0.0 0.0 0.00 0.44 0.00 100 976.8
20260905075400 69 55 0.0 0.0 0.00 0.44 0.00 100 976.7
20260905075247 69 55 0.0 0.0 0.00 0.44 0.00 100 976.7
20260905074607 69 82 3.0 3.0 0.00 0.44 0.00 100 976.7
20260905073930 69 70 0.0 0.0 0.00 0.44 0.00 100 976.8
20260905073334 69 70 0.0 0.0 0.00 0.44 0.00 100 976.6
20260905073249 69 70 0.0 0.0 0.00 0.44 0.00 100 976.6
20260905072612 69 121 4.0 6.0 0.00 0.44 0.00 100 976.7
20260905072005 69 82 6.0 5.0 0.00 0.44 0.00 100 976.8
20260905071932 69 82 6.0 5.0 0.00 0.44 0.00 100 976.8
20260905071412 69 58 4.0 5.0 0.00 0.44 0.00 100 976.8
20260905071255 69 58 4.0 5.0 0.00 0.44 0.00 100 976.8
20260905070756 69 59 5.0 6.0 0.00 0.44 0.00 100 976.8
20260905070709 69 59 5.0 6.0 0.00 0.44 0.00 100 976.8
20260905070614 69 59 5.0 6.0 0.00 0.44 0.00 100 976.8
20260905070029 69 68 5.0 5.0 0.00 0.44 0.00 100 976.8
20260905065937 69 68 5.0 5.0 0.00 0.44 0.00 100 976.8
20260905065442 69 83 6.0 6.0 0.00 0.44 0.00 100 976.8
20260905065257 69 83 6.0 6.0 0.00 0.44 0.00 100 976.8
20260905064706 69 55 7.0 5.0 0.00 0.44 0.00 100 976.8
20260905064620 69 55 7.0 5.0 0.00 0.44 0.00 100 976.8
20260905063440 69 28 6.0 5.0 0.00 0.44 0.00 100 976.8
20260905063302 69 28 6.0 5.0 0.00 0.44 0.00 100 976.8
20260905062622 70 60 6.0 7.0 0.00 0.44 0.00 100 976.8
20260905061945 70 42 5.0 6.0 0.00 0.44 0.00 100 977.0
20260905061401 70 62 7.0 5.0 0.00 0.44 0.00 100 976.9
20260905061304 70 62 7.0 5.0 0.00 0.44 0.00 100 976.9
20260905060746 70 82 6.0 7.0 0.00 0.44 0.00 100 976.9
20260905060627 70 82 6.0 7.0 0.00 0.44 0.00 100 976.9
20260905060049 70 65 8.0 6.0 0.00 0.44 0.00 100 976.9
20260905055947 70 65 8.0 6.0 0.00 0.44 0.00 100 976.9
20260905055414 70 15 2.0 4.0 0.00 0.44 0.00 100 976.9
20260905055310 70 15 2.0 4.0 0.00 0.44 0.00 100 976.9
20260905054823 70 105 5.0 5.0 0.00 0.44 0.00 100 976.8
20260905054629 70 105 5.0 5.0 0.00 0.44 0.00 100 976.8
20260905053952 70 46 7.0 9.0 0.00 0.44 0.00 100 976.6
20260905053621 71 113 7.0 9.0 0.00 0.44 0.00 100 976.7
20260905053312 71 113 7.0 9.0 0.00 0.44 0.00 100 976.7
20260905052752 71 84 6.0 6.0 0.00 0.44 0.00 100 976.7
20260905052635 71 84 6.0 6.0 0.00 0.44 0.00 100 976.7
20260905051954 71 108 5.0 5.0 0.00 0.44 0.00 100 976.7
20260905051317 71 96 6.0 5.0 0.00 0.44 0.00 100 976.8
20260905050637 71 104 5.0 3.0 0.00 0.44 0.00 100 976.8
20260905045412 72 127 6.0 5.0 0.00 0.44 0.00 100 976.6
20260905045319 72 127 6.0 5.0 0.00 0.44 0.00 100 976.6
20260905044913 72 76 7.0 7.0 0.00 0.44 0.00 100 976.5
20260905044642 72 76 7.0 7.0 0.00 0.44 0.00 100 976.5
20260905044122 72 104 0.0 3.0 0.00 0.44 0.00 100 976.6
20260905044002 72 104 0.0 3.0 0.00 0.44 0.00 100 976.6
20260905043442 72 91 6.0 6.0 0.00 0.44 0.00 100 976.4
20260905043325 72 91 6.0 6.0 0.00 0.44 0.00 100 976.4
20260905042644 72 84 5.0 5.0 0.00 0.44 0.00 100 976.5
20260905042007 73 110 3.0 6.0 0.00 0.44 0.00 100 976.7
20260905041327 73 59 4.0 3.0 0.00 0.44 0.00 100 976.6
20260905040745 73 87 6.0 6.0 0.00 0.44 0.00 100 976.7
20260905040650 73 87 6.0 6.0 0.00 0.44 0.00 100 976.7
20260905040009 72 94 0.0 0.0 0.00 0.44 0.00 100 976.9
20260905035442 72 101 2.0 0.0 0.00 0.01 0.44 100 976.8
20260905035332 72 101 2.0 0.0 0.00 0.01 0.44 100 976.8
20260905034815 72 63 1.0 5.0 0.00 0.01 0.44 100 976.8
20260905034652 72 63 1.0 5.0 0.00 0.01 0.44 100 976.8
20260905034141 72 10 0.0 0.0 0.00 0.01 0.44 100 977.0
20260905034015 72 10 0.0 0.0 0.00 0.01 0.44 100 977.0
20260905033425 72 10 0.0 0.0 0.00 0.01 0.44 100 977.0
20260905033334 72 10 0.0 0.0 0.00 0.01 0.44 100 977.0
20260905032811 72 34 5.0 5.0 0.00 0.01 0.44 100 977.1
20260905032657 72 34 5.0 5.0 0.00 0.01 0.44 100 977.1
20260905031440 73 10 0.0 4.0 0.00 0.01 0.44 100 977.0
20260905031339 73 10 0.0 4.0 0.00 0.01 0.44 100 977.0
20260905030659 73 10 0.0 0.0 0.00 0.01 0.44 100 977.1
20260905030022 73 10 0.0 0.0 0.00 0.01 0.44 100 977.1
20260905025341 73 10 0.0 0.0 0.00 0.01 0.44 100 977.1
20260905024704 73 10 0.0 0.0 0.00 0.01 0.44 100 977.0
20260905024246 73 10 0.0 0.0 0.00 0.01 0.44 100 976.9
20260905024024 73 10 0.0 0.0 0.00 0.01 0.44 100 976.9
20260905023347 74 10 0.0 0.0 0.00 0.01 0.44 100 976.9
20260905022029 74 10 0.0 0.0 0.00 0.01 0.44 100 977.0
20260905021348 74 10 0.0 0.0 0.00 0.01 0.44 100 976.9
20260905020711 74 10 0.0 0.0 0.00 0.01 0.44 100 976.7
20260905015513 74 10 0.0 0.0 0.00 0.01 0.44 100 976.8
20260905015354 74 10 0.0 0.0 0.00 0.01 0.44 100 976.8
20260905014713 74 10 0.0 0.0 0.00 0.01 0.44 100 976.7
20260905014036 74 10 0.0 0.0 0.00 0.01 0.44 100 976.7
20260905013355 74 10 0.0 0.0 0.00 0.01 0.44 99 976.7
20260905012718 75 10 0.0 0.0 0.00 0.01 0.44 99 976.7
20260905012136 75 10 0.0 0.0 0.00 0.01 0.44 98 976.6
20260905012038 75 10 0.0 0.0 0.00 0.01 0.44 98 976.6
20260905011441 75 10 0.0 0.0 0.00 0.01 0.44 98 976.8
20260905011401 75 10 0.0 0.0 0.00 0.01 0.44 98 976.8
20260905010043 75 10 0.0 0.0 0.00 0.01 0.44 97 976.7
20260905005402 75 10 0.0 0.0 0.00 0.01 0.44 97 976.5
20260905004725 76 10 0.0 0.0 0.00 0.01 0.44 96 976.4
20260905003407 76 10 0.0 0.0 0.00 0.01 0.44 96 976.3
20260905002727 76 10 0.0 0.0 0.00 0.01 0.44 96 976.2
20260905002050 76 10 0.0 0.0 0.00 0.01 0.44 96 976.2
20260905001409 76 10 0.0 0.0 0.00 0.01 0.44 95 976.2
20260905000732 76 10 0.0 0.0 0.00 0.01 0.44 95 976.2
20260904235459 77 10 0.0 0.0 0.00 0.01 0.44 94 976.0
20260904235414 77 10 0.0 0.0 0.00 0.01 0.44 94 976.0
20260904234734 77 10 0.0 0.0 0.00 0.01 0.44 93 975.8
20260904234057 77 10 0.0 0.0 0.00 0.01 0.44 92 975.5
20260904233416 77 10 0.0 0.0 0.00 0.01 0.44 92 975.4
20260904232739 77 10 0.0 0.0 0.00 0.01 0.44 90 975.1
20260904231421 78 10 1.0 0.0 0.00 0.01 0.44 90 975.3
20260904230740 78 10 0.0 0.0 0.00 0.01 0.44 90 975.2
20260904230103 77 10 0.0 0.0 0.00 0.01 0.44 90 975.1
20260904225423 77 10 0.0 0.0 0.00 0.01 0.44 90 975.1
20260904224915 77 10 0.0 0.0 0.00 0.01 0.44 90 975.0
20260904224746 77 10 0.0 0.0 0.00 0.01 0.44 90 975.0
20260904224105 77 10 0.0 0.0 0.00 0.01 0.44 89 974.9
20260904223534 77 10 4.0 0.0 0.00 0.01 0.44 90 974.9
20260904223428 77 10 4.0 0.0 0.00 0.01 0.44 90 974.9
20260904222748 78 46 5.0 5.0 0.00 0.01 0.44 90 974.6
20260904222110 78 18 5.0 0.0 0.00 0.01 0.44 89 974.7
20260904221430 78 332 3.0 3.0 0.00 0.01 0.44 89 974.6
20260904220753 78 312 0.0 0.0 0.00 0.01 0.44 87 974.7
20260904220112 78 330 2.0 5.0 0.00 0.01 0.44 87 974.9
20260904215435 78 354 6.0 4.0 0.00 0.01 0.44 87 975.0
20260904214755 78 321 0.0 0.0 0.00 0.01 0.44 90 975.0
20260904214118 77 321 4.0 0.0 0.00 0.01 0.44 91 975.1
20260904213437 77 0 3.0 0.0 0.00 0.01 0.44 90 975.1
20260904212800 77 339 0.0 0.0 0.00 0.01 0.44 91 975.2
20260904212120 77 293 0.0 0.0 0.00 0.01 0.44 91 975.1
20260904211443 77 293 0.0 0.0 0.00 0.01 0.44 91 975.2
20260904210802 77 293 0.0 0.0 0.00 0.01 0.44 91 975.3
20260904210125 77 293 0.0 0.0 0.00 0.01 0.44 90 975.4
20260904205445 77 239 0.0 0.0 0.00 0.01 0.44 90 975.4
20260904204808 77 239 0.0 0.0 0.00 0.01 0.44 91 975.4
20260904204127 77 222 1.0 5.0 0.00 0.01 0.44 91 975.6
20260904203450 77 307 0.0 0.0 0.00 0.01 0.44 92 975.6
20260904202810 77 314 4.0 3.0 0.00 0.01 0.44 91 975.7
20260904202133 77 312 0.0 0.0 0.00 0.01 0.44 92 975.8
20260904201452 77 312 0.0 0.0 0.00 0.01 0.44 92 975.8
20260904200815 76 228 0.0 0.0 0.00 0.01 0.44 94 975.8
20260904200135 76 228 0.0 0.0 0.00 0.01 0.44 93 976.0
20260904195458 76 221 0.0 0.0 0.00 0.01 0.44 94 976.2
20260904194817 76 229 5.0 4.0 0.00 0.01 0.44 94 976.3
20260904194142 76 197 5.0 6.0 0.00 0.01 0.44 95 976.2